Location: Caltech
(34.1382°N, 118.1253°W)
Time: 20:57:28
(UTC-07:00)

CZ-4B DEB - Visible Passes

Search period start: 24 April 2014 00:00
Search period end: 04 May 2014 00:00
Orbit: 843 x 865 km, 98.8° (Epoch: 24 April)

Date Brightness Start Highest point End Pass type
(mag) Time Alt. Az. Time Alt. Az. Time Alt. Az.
24 Apr 5.4 03:45:37 10° NNE 03:50:40 37° E 03:53:54 20° SSE visible
24 Apr 5.4 05:26:49 10° NNW 05:31:11 25° WNW 05:35:34 10° WSW visible
25 Apr 5.8 03:35:05 10° NE 03:39:48 29° E 03:43:03 17° SE visible
25 Apr 5.1 05:15:42 10° N 05:20:28 31° WNW 05:25:08 11° SW visible
26 Apr 6.2 03:24:39 10° NE 03:28:55 23° E 03:32:11 14° SE visible
26 Apr 4.8 05:04:39 10° N 05:09:43 39° WNW 05:14:16 13° SW visible
27 Apr 6.5 03:14:22 10° NE 03:18:01 18° E 03:21:19 11° SE visible
27 Apr 4.5 04:53:41 10° N 04:58:58 49° WNW 05:03:24 15° SW visible
28 Apr 6.7 03:04:23 10° ENE 03:07:05 14° E 03:09:47 10° ESE visible
28 Apr 4.3 04:42:45 10° N 04:48:11 63° WNW 04:52:32 16° SSW visible
29 Apr 6.9 02:55:31 10° E 02:56:09 10° E 02:56:46 10° E visible
29 Apr 4.1 04:31:53 10° N 04:37:24 80° WNW 04:41:40 17° SSW visible
30 Apr 4.2 04:21:03 10° NNE 04:26:35 82° ESE 04:30:48 18° S visible
01 May 4.5 04:10:17 10° NNE 04:15:45 65° ESE 04:19:55 18° S visible
02 May 4.9 03:59:33 10° NNE 04:04:55 51° E 04:09:02 17° S visible
03 May 5.3 03:48:54 10° NNE 03:54:03 40° E 03:58:09 16° SSE visible
03 May 5.5 05:30:16 10° NNW 05:34:31 23° WNW 05:38:47 10° WSW visible
